Regional Weather Roundup
Issued by NWS

Home | Current Version | Previous Version | Text Only | Print | Product List | Glossary On
Versions: 1 2 3 4 5 6 7 8 9 10 11 12 13 14 15 16 17 18 19 20 21 22 23 24 25 26 27 28 29 30 31 32 33 34 35 36 37 38 39 40 41 42 43 44 45 46 47 48 49 50
000
ASUS43 KTOP 021008
RWRKS

WEATHER ROUNDUP FOR KANSAS
NATIONAL WEATHER SERVICE GOODLAND KS
500 AM CDT THU OCT 02 2014

NOTE:  "FAIR" INDICATES FEW OR NO CLOUDS BELOW 12,000 FEET WITH NO
SIGNIFICANT WEATHER AND/OR OBSTRUCTIONS TO VISIBILITY.

KSZ001>006-013>018-027>032-041>047-021100-
NORTHWEST KANSAS

CITY           SKY/WX    TMP DP  RH WIND       PRES   REMARKS
GOODLAND       LGT RAIN  48  46  93 N16       30.01R
HAYS           CLOUDY    57  46  67 NW22G30   29.84R
HILL CITY      RAIN      54  51  90 N21G29    29.89R
RUSSELL        CLOUDY    60  56  86 N17       29.76F
$$

KSZ061>065-074>080-084>089-021100-
SOUTHWEST KANSAS

CITY           SKY/WX    TMP DP  RH WIND       PRES   REMARKS
DODGE CITY     MOCLDY    57  48  72 N20G31    29.84R
GARDEN CITY    LGT RAIN  52  50  93 N21G32    29.89R
GREAT BEND     CLOUDY    61  52  72 NW15      29.76F
LIBERAL        CLOUDY    57  45  62 NW23G29   29.88R
PRATT          PTCLDY    61  55  82 N18G28    29.74R
$$

KSZ066>073-081>083-090>101-021100-
SOUTHEAST KANSAS

CITY           SKY/WX    TMP DP  RH WIND       PRES   REMARKS
CHANUTE        MOCLDY    70  66  87 S12G21    29.73R
COFFEYVILLE    LGT RAIN  70  68  93 SE12      29.72F
HUTCHINSON     PTCLDY    64  62  93 N7        29.71R
MEDICINE LODGE   N/A     65  62  90 N9        29.70R
NEWTON         CLEAR     64  59  82 SE6       29.71R
PARSONS        MOCLDY    69  66  90 S6        29.75S
WICHITA INTL   PTCLDY    70  64  81 S10       29.67S
WICHITA JABRA  CLEAR     69  63  81 SE8       29.69R
WICHITA MCCONL CLEAR     71  67  90 E8        29.69S
WINFIELD       MOCLDY    70  67  90 SE9       29.70R
$$

KSZ007>012-019>026-033>040-048>060-102>105-021100-
NORTHEAST KANSAS

CITY           SKY/WX    TMP DP  RH WIND       PRES   REMARKS
CONCORDIA      CLOUDY    64  61  90 N10       29.75F
EMPORIA        PTCLDY    66  65  96 S9        29.71R
LAWRENCE       CLEAR     64  62  93 SE6       29.72S
MANHATTAN      CLEAR     63  62  97 N6        29.69R
MARYSVILLE     CLOUDY    63  63 100 CALM      29.73R FOG
OLATHE IND     MOCLDY    66  65  96 SE9       29.74S
OLATHE EXE     CLOUDY    65  64  97 SE7       29.73S
SALINA         CLOUDY    64  62  93 NW13      29.72R
TOPEKA BILLARD CLEAR     65  65 100 E3        29.71S
TOPEKA FORBES  CLEAR     65  63  93 SE8       29.70F
$$



USA.gov is the U.S. government's official web portal to all federal, state and local government web resources and services.